• In United Kingdom
  • List of Countries
  • For 7 days
  • Water Temperature
  • Satellite Maps
  • Weather Map
  • Weather Widgets
  • user-avatar
    Login

    Hourly Weather Kipungo

    Today, 21 August, Monday

    Time Temperature Precipitation Wind Pressure Humidity
    00:00 +20°C° 0 mm 1 mps 655 mmHg 24%
    01:00 +19°C° 0 mm 1 mps 654 mmHg 26%
    02:00 +18°C° 0 mm 1 mps 654 mmHg 26%
    03:00 +18°C° 0 mm 1 mps 654 mmHg 27%
    04:00 +16°C° 0 mm 1 mps 653 mmHg 27%
    05:00 +16°C° 0 mm 1 mps 654 mmHg 26%
    06:00 +16°C° 0 mm 1 mps 654 mmHg 25%
    07:00 +16°C° 0 mm 1 mps 654 mmHg 24%
    08:00 +20°C° 0 mm 2 mps 655 mmHg 21%
    09:00 +25°C° 0 mm 3 mps 656 mmHg 18%
    10:00 +29°C° 0 mm 4 mps 657 mmHg 14%
    11:00 +31°C° 0 mm 3 mps 657 mmHg 13%
    12:00 +34°C° 0 mm 3 mps 657 mmHg 11%
    13:00 +36°C° 0 mm 2 mps 656 mmHg 9%
    14:00 +36°C° 0 mm 2 mps 656 mmHg 9%
    15:00 +35°C° 0 mm 2 mps 655 mmHg 8%
    16:00 +35°C° 0 mm 2 mps 655 mmHg 8%
    17:00 +31°C° 0 mm 2 mps 654 mmHg 10%
    18:00 +29°C° 0 mm 2 mps 654 mmHg 12%
    19:00 +26°C° 0 mm 2 mps 654 mmHg 14%
    20:00 +24°C° 0 mm 2 mps 654 mmHg 16%
    21:00 +23°C° 0 mm 2 mps 654 mmHg 18%
    22:00 +21°C° 0 mm 2 mps 654 mmHg 19%
    23:00 +20°C° 0 mm 2 mps 654 mmHg 21%

    Tomorrow, 22 August, Tuesday

    Time Temperature Precipitation Wind Pressure Humidity
    00:00 +19°C° 0 mm 2 mps 654 mmHg 22%
    01:00 +18°C° 0 mm 2 mps 653 mmHg 24%
    02:00 +17°C° 0 mm 2 mps 653 mmHg 24%
    03:00 +18°C° 0 mm 1 mps 653 mmHg 23%
    04:00 +16°C° 0 mm 1 mps 653 mmHg 23%
    05:00 +16°C° 0 mm 1 mps 653 mmHg 24%
    06:00 +16°C° 0 mm 1 mps 653 mmHg 24%
    07:00 +16°C° 0 mm 1 mps 654 mmHg 24%
    08:00 +21°C° 0 mm 2 mps 655 mmHg 21%
    09:00 +26°C° 0 mm 3 mps 656 mmHg 18%
    10:00 +30°C° 0 mm 4 mps 657 mmHg 15%
    11:00 +32°C° 0 mm 4 mps 656 mmHg 14%
    12:00 +34°C° 0 mm 4 mps 656 mmHg 12%
    13:00 +35°C° 0 mm 3 mps 655 mmHg 10%
    14:00 +35°C° 0 mm 3 mps 655 mmHg 10%
    15:00 +35°C° 0 mm 3 mps 654 mmHg 9%
    16:00 +35°C° 0 mm 3 mps 654 mmHg 9%
    17:00 +31°C° 0 mm 2 mps 653 mmHg 11%
    18:00 +28°C° 0 mm 2 mps 653 mmHg 13%
    19:00 +26°C° 0 mm 1 mps 653 mmHg 15%
    20:00 +24°C° 0 mm 1 mps 653 mmHg 16%
    21:00 +23°C° 0 mm 1 mps 653 mmHg 17%
    22:00 +22°C° 0 mm 1 mps 653 mmHg 18%
    23:00 +21°C° 0 mm 1 mps 653 mmHg 19%

    Day after tomorrow, 23 August, Wednesday

    Time Temperature Precipitation Wind Pressure Humidity
    00:00 +20°C° 0 mm 1 mps 652 mmHg 20%
    01:00 +20°C° 0 mm 1 mps 652 mmHg 21%
    02:00 +19°C° 0 mm 1 mps 652 mmHg 22%
    03:00 +16°C° 0 mm 0 mps 651 mmHg 24%
    04:00 +16°C° 0 mm 0 mps 651 mmHg 25%
    05:00 +16°C° 0 mm 0 mps 652 mmHg 25%
    06:00 +16°C° 0 mm 0 mps 652 mmHg 25%
    07:00 +16°C° 0 mm 0 mps 653 mmHg 25%
    08:00 +22°C° 0 mm 1 mps 654 mmHg 21%
    09:00 +27°C° 0 mm 2 mps 655 mmHg 17%
    10:00 +31°C° 0 mm 3 mps 655 mmHg 13%
    11:00 +33°C° 0 mm 3 mps 655 mmHg 12%
    12:00 +35°C° 0 mm 2 mps 655 mmHg 10%
    13:00 +37°C° 0 mm 2 mps 654 mmHg 9%
    14:00 +37°C° 0 mm 2 mps 654 mmHg 8%
    15:00 +36°C° 0 mm 1 mps 653 mmHg 8%
    16:00 +36°C° 0 mm 1 mps 653 mmHg 8%
    17:00 +33°C° 0 mm 1 mps 653 mmHg 11%
    18:00 +29°C° 0 mm 1 mps 653 mmHg 14%
    19:00 +26°C° 0 mm 1 mps 652 mmHg 17%
    20:00 +24°C° 0 mm 1 mps 653 mmHg 27%
    21:00 +23°C° 0 mm 2 mps 653 mmHg 37%
    22:00 +20°C° 0 mm 2 mps 653 mmHg 46%
    23:00 +20°C° 0 mm 2 mps 653 mmHg 53%

    24 August, Thursday

    Time Temperature Precipitation Wind Pressure Humidity
    00:00 +19°C° 0 mm 2 mps 652 mmHg 60%
    01:00 +18°C° 0 mm 2 mps 652 mmHg 66%
    02:00 +17°C° 0 mm 2 mps 652 mmHg 69%
    03:00 +16°C° 0 mm 2 mps 652 mmHg 72%
    04:00 +16°C° 0 mm 1 mps 652 mmHg 75%
    05:00 +16°C° 0 mm 1 mps 652 mmHg 74%
    06:00 +16°C° 0 mm 1 mps 652 mmHg 72%
    07:00 +16°C° 0 mm 1 mps 653 mmHg 70%
    08:00 +22°C° 0 mm 1 mps 654 mmHg 54%
    09:00 +26°C° 0 mm 1 mps 655 mmHg 38%
    10:00 +30°C° 0 mm 2 mps 656 mmHg 22%
    11:00 +32°C° 0 mm 1 mps 656 mmHg 18%
    12:00 +34°C° 0 mm 1 mps 655 mmHg 15%
    13:00 +36°C° 0 mm 1 mps 655 mmHg 11%
    14:00 +36°C° 0 mm 1 mps 655 mmHg 12%
    15:00 +35°C° 0 mm 1 mps 654 mmHg 12%
    16:00 +35°C° 0 mm 1 mps 653 mmHg 12%
    17:00 +32°C° 0 mm 2 mps 653 mmHg 18%
    18:00 +29°C° 0 mm 2 mps 653 mmHg 25%
    19:00 +26°C° 0 mm 3 mps 653 mmHg 31%
    20:00 +24°C° 0 mm 3 mps 653 mmHg 40%
    21:00 +22°C° 0 mm 3 mps 654 mmHg 50%
    22:00 +20°C° 0 mm 3 mps 654 mmHg 59%
    23:00 +19°C° 0 mm 2 mps 654 mmHg 64%

    25 August, Friday

    Time Temperature Precipitation Wind Pressure Humidity
    00:00 +18°C° 0 mm 2 mps 653 mmHg 70%
    01:00 +17°C° 0 mm 2 mps 653 mmHg 75%
    02:00 +18°C° 0 mm 1 mps 653 mmHg 78%
    03:00 +16°C° 0 mm 1 mps 653 mmHg 82%
    04:00 +14°C° 0 mm 0 mps 653 mmHg 85%
    05:00 +16°C° 0 mm 1 mps 653 mmHg 83%
    06:00 +16°C° 0 mm 1 mps 654 mmHg 81%
    07:00 +16°C° 0 mm 1 mps 654 mmHg 79%
    08:00 +21°C° 0 mm 1 mps 655 mmHg 60%
    09:00 +25°C° 0 mm 2 mps 656 mmHg 42%
    10:00 +29°C° 0 mm 2 mps 657 mmHg 24%
    11:00 +31°C° 0 mm 2 mps 656 mmHg 20%
    12:00 +34°C° 0 mm 2 mps 656 mmHg 16%
    13:00 +36°C° 0 mm 2 mps 655 mmHg 12%
    14:00 +36°C° 0 mm 2 mps 655 mmHg 11%
    15:00 +36°C° 0 mm 2 mps 654 mmHg 11%
    16:00 +35°C° 0 mm 1 mps 654 mmHg 10%
    17:00 +32°C° 0 mm 1 mps 654 mmHg 14%
    18:00 +29°C° 0 mm 1 mps 654 mmHg 17%
    19:00 +27°C° 0 mm 1 mps 653 mmHg 20%
    20:00 +25°C° 0 mm 2 mps 653 mmHg 28%
    21:00 +23°C° 0 mm 2 mps 654 mmHg 36%
    22:00 +21°C° 0 mm 2 mps 654 mmHg 44%
    23:00 +20°C° 0 mm 2 mps 653 mmHg 49%

    26 August, Saturday

    Time Temperature Precipitation Wind Pressure Humidity
    00:00 +19°C° 0 mm 2 mps 653 mmHg 54%
    01:00 +19°C° 0 mm 1 mps 653 mmHg 59%
    02:00 +19°C° 0 mm 1 mps 653 mmHg 61%
    03:00 +18°C° 0 mm 1 mps 653 mmHg 63%
    04:00 +16°C° 0 mm 1 mps 653 mmHg 65%
    05:00 +18°C° 0 mm 1 mps 653 mmHg 61%
    06:00 +18°C° 0 mm 1 mps 654 mmHg 58%
    07:00 +18°C° 0 mm 1 mps 654 mmHg 54%
    08:00 +21°C° 0 mm 2 mps 655 mmHg 40%
    09:00 +26°C° 0 mm 2 mps 656 mmHg 26%
    10:00 +30°C° 0 mm 3 mps 657 mmHg 12%
    11:00 +33°C° 0 mm 3 mps 656 mmHg 10%
    12:00 +34°C° 0 mm 3 mps 656 mmHg 9%
    13:00 +36°C° 0 mm 3 mps 655 mmHg 8%
    14:00 +36°C° 0 mm 3 mps 655 mmHg 7%
    15:00 +36°C° 0 mm 3 mps 654 mmHg 7%
    16:00 +36°C° 0 mm 2 mps 654 mmHg 7%
    17:00 +32°C° 0 mm 2 mps 654 mmHg 10%
    18:00 +29°C° 0 mm 2 mps 653 mmHg 12%
    19:00 +26°C° 0 mm 1 mps 653 mmHg 14%
    20:00 +25°C° 0 mm 2 mps 653 mmHg 19%
    21:00 +24°C° 0 mm 2 mps 653 mmHg 24%
    22:00 +21°C° 0 mm 2 mps 653 mmHg 30%
    23:00 +20°C° 0 mm 2 mps 653 mmHg 33%
    Show more